This is the latest recevied weather packets stored in our database for station/object KB1JLI. If no packets are shown the sender has not sent any weather packets the latest 10 day(s).
| Time | Temp. | Humidity | Pressure | Rain* | Wind** | Luminosity | Snow |
|---|---|---|---|---|---|---|---|
| 1777158581 | 9.44° C | 48% | 1017.4 hPa | 0 mm | - | 11 W/m² | - |
| 1777158277 | 10° C | 48% | 1017.4 hPa | 0 mm | - | 14 W/m² | - |
| 1777157973 | 10° C | 47% | 1017.3 hPa | 0 mm | - | 18 W/m² | - |
| 1777157669 | 10° C | 47% | 1017.5 hPa | 0 mm | - | 20 W/m² | - |
| 1777157366 | 10° C | 47% | 1017.1 hPa | 0 mm | - | 24 W/m² | - |
| 1777157066 | 10° C | 46% | 1017.3 hPa | 0 mm | - | 28 W/m² | - |
| 1777156761 | 10° C | 45% | 1017.5 hPa | 0 mm | - | 32 W/m² | - |
| 1777156456 | 10° C | 45% | 1017.3 hPa | 0 mm | - | 36 W/m² | - |
| 1777156153 | 10° C | 44% | 1017.3 hPa | 0 mm | - | 38 W/m² | - |
| 1777155850 | 10° C | 44% | 1017.2 hPa | 0 mm | - | 39 W/m² | - |
| 1777155544 | 10.56° C | 44% | 1017.5 hPa | 0 mm | - | 42 W/m² | - |
| 1777155243 | 10.56° C | 44% | 1017.5 hPa | 0 mm | - | 49 W/m² | - |
| 1777154939 | 10.56° C | 44% | 1017.3 hPa | 0 mm | - | 56 W/m² | - |
| 1777154636 | 10.56° C | 44% | 1017.3 hPa | 0 mm | - | 62 W/m² | - |
| 1777154333 | 10.56° C | 43% | 1017.3 hPa | 0 mm | - | 68 W/m² | - |
| 1777154028 | 10.56° C | 44% | 1017.4 hPa | 0 mm | - | 71 W/m² | - |
| 1777153724 | 10.56° C | 43% | 1017.7 hPa | 0 mm | - | 75 W/m² | - |
| 1777153421 | 10.56° C | 44% | 1017.6 hPa | 0 mm | - | 78 W/m² | - |
| 1777153117 | 10.56° C | 44% | 1017.3 hPa | 0 mm | - | 84 W/m² | - |
| 1777152813 | 10° C | 43% | 1017.4 hPa | 0 mm | - | 91 W/m² | - |
| 1777152509 | 10.56° C | 43% | 1017.4 hPa | 0 mm | - | 95 W/m² | - |
| 1777152206 | 10.56° C | 43% | 1017.5 hPa | 0 mm | - | 100 W/m² | - |
| 1777151901 | 10.56° C | 43% | 1017.4 hPa | 0 mm | - | 105 W/m² | - |
| 1777151597 | 10.56° C | 43% | 1017.2 hPa | 0 mm | - | 108 W/m² | - |
| 1777151295 | 10.56° C | 42% | 1017.3 hPa | 0 mm | - | 110 W/m² | - |
* Rain latest hour (hover to see other rain measurements)
** Current wind speed in m/s (hover to see current wind gust speed)